Time,TemperatureF,DewpointF,PressureIn,WindDirection,WindDirectionDegrees,WindSpeedMPH,WindSpeedGustMPH,Humidity,HourlyPrecipIn,Conditions,Clouds,dailyrainin,SoftwareType,DateUTC
2013-02-14 00:02:00,33.0,32.0,-100.00,NE,35,2.0,3.0,95,-99.99,,,-99.99,,2013-02-14 05:02:00,
2013-02-14 00:11:00,33.0,32.0,-100.00,NE,35,0.0,2.0,95,-99.99,,,-99.99,,2013-02-14 05:11:00,
2013-02-14 00:22:00,33.0,32.0,-100.00,NE,35,0.0,2.0,95,-99.99,,,-99.99,,2013-02-14 05:22:00,
2013-02-14 00:32:00,33.0,32.0,-100.00,NE,40,2.0,2.0,95,-99.99,,,-99.99,,2013-02-14 05:32:00,
2013-02-14 00:42:00,33.0,32.0,-100.00,NNE,30,2.0,3.0,95,-99.99,,,-99.99,,2013-02-14 05:42:00,
2013-02-14 00:52:00,33.0,32.0,-100.00,NNE,30,2.0,3.0,95,-99.99,,,-99.99,,2013-02-14 05:52:00,
2013-02-14 01:02:00,33.0,31.0,-100.00,North,350,0.0,2.0,95,-99.99,,,-99.99,,2013-02-14 06:02:00,
2013-02-14 01:11:00,33.0,32.0,-100.00,NNE,15,1.0,2.0,96,-99.99,,,-99.99,,2013-02-14 06:11:00,
2013-02-14 01:22:00,33.0,32.0,-100.00,NNE,15,1.0,2.0,96,-99.99,,,-99.99,,2013-02-14 06:22:00,
2013-02-14 01:32:00,33.0,32.0,-100.00,ENE,60,2.0,2.0,96,-99.99,,,-99.99,,2013-02-14 06:32:00,
2013-02-14 01:42:00,33.0,32.0,-100.00,North,10,2.0,3.0,96,-99.99,,,-99.99,,2013-02-14 06:42:00,
2013-02-14 01:51:00,33.0,32.0,-100.00,North,10,2.0,3.0,96,-99.99,,,-99.99,,2013-02-14 06:51:00,
2013-02-14 02:01:00,33.0,32.0,-100.00,NE,40,1.0,2.0,96,-99.99,,,-99.99,,2013-02-14 07:01:00,
2013-02-14 02:11:00,33.0,32.0,-100.00,NE,50,1.0,3.0,96,-99.99,,,-99.99,,2013-02-14 07:11:00,
2013-02-14 02:21:00,33.0,32.0,-100.00,NE,50,1.0,3.0,96,-99.99,,,-99.99,,2013-02-14 07:21:00,
2013-02-14 02:32:00,33.0,32.0,-100.00,NNE,30,3.0,4.0,96,-99.99,,,-99.99,,2013-02-14 07:32:00,
2013-02-14 02:42:00,33.0,32.0,-100.00,NE,50,2.0,3.0,96,-99.99,,,-99.99,,2013-02-14 07:42:00,
2013-02-14 02:52:00,33.0,32.0,-100.00,NE,50,2.0,3.0,96,-99.99,,,-99.99,,2013-02-14 07:52:00,
2013-02-14 03:01:00,33.0,32.0,-100.00,NNE,15,1.0,3.0,96,-99.99,,,-99.99,,2013-02-14 08:01:00,
2013-02-14 03:11:00,33.0,32.0,-100.00,NNE,25,2.0,3.0,96,-99.99,,,-99.99,,2013-02-14 08:11:00,
2013-02-14 03:22:00,33.0,32.0,-100.00,NNE,25,2.0,3.0,96,-99.99,,,-99.99,,2013-02-14 08:22:00,
2013-02-14 03:32:00,33.0,32.0,-100.00,NE,35,2.0,3.0,96,-99.99,,,-99.99,,2013-02-14 08:32:00,
2013-02-14 03:43:00,33.0,32.0,-100.00,NNE,25,3.0,3.0,96,-99.99,,,-99.99,,2013-02-14 08:43:00,
2013-02-14 03:52:00,33.0,32.0,-100.00,NNE,25,3.0,3.0,96,-99.99,,,-99.99,,2013-02-14 08:52:00,
2013-02-14 04:02:00,33.0,32.0,-100.00,ENE,65,2.0,4.0,96,-99.99,,,-99.99,,2013-02-14 09:02:00,
2013-02-14 04:11:00,33.0,32.0,-100.00,ENE,65,3.0,5.0,96,-99.99,,,-99.99,,2013-02-14 09:11:00,
2013-02-14 04:21:00,33.0,32.0,-100.00,ENE,65,3.0,5.0,96,-99.99,,,-99.99,,2013-02-14 09:21:00,
2013-02-14 04:32:00,33.0,32.0,-100.00,NE,35,0.0,4.0,96,-99.99,,,-99.99,,2013-02-14 09:32:00,
2013-02-14 04:42:00,32.0,31.0,-100.00,NE,35,1.0,4.0,96,-99.99,,,-99.99,,2013-02-14 09:42:00,
2013-02-14 04:52:00,32.0,31.0,-100.00,NE,35,1.0,4.0,96,-99.99,,,-99.99,,2013-02-14 09:52:00,
2013-02-14 05:02:00,33.0,32.0,-100.00,SSE,160,1.0,9.0,96,-99.99,,,-99.99,,2013-02-14 10:02:00,
2013-02-14 05:11:00,31.0,30.0,-100.00,NNE,15,1.0,5.0,96,-99.99,,,-99.99,,2013-02-14 10:11:00,
2013-02-14 05:21:00,31.0,30.0,-100.00,NNE,15,1.0,5.0,96,-99.99,,,-99.99,,2013-02-14 10:21:00,
2013-02-14 05:32:00,30.0,29.0,-100.00,NNE,15,0.0,2.0,96,-99.99,,,-99.99,,2013-02-14 10:32:00,
2013-02-14 05:42:00,29.0,28.0,-100.00,NNE,20,0.0,1.0,96,-99.99,,,-99.99,,2013-02-14 10:42:00,
2013-02-14 05:52:00,29.0,28.0,-100.00,NNE,20,0.0,1.0,96,-99.99,,,-99.99,,2013-02-14 10:52:00,
2013-02-14 06:02:00,29.0,28.0,-100.00,NNE,30,1.0,5.0,96,-99.99,,,-99.99,,2013-02-14 11:02:00,
2013-02-14 06:11:00,28.0,27.0,-100.00,NE,35,2.0,4.0,96,-99.99,,,-99.99,,2013-02-14 11:11:00,
2013-02-14 06:22:00,28.0,27.0,-100.00,NE,35,2.0,4.0,96,-99.99,,,-99.99,,2013-02-14 11:22:00,
2013-02-14 06:32:00,27.0,27.0,-100.00,NNE,25,2.0,2.0,96,-99.99,,,-99.99,,2013-02-14 11:32:00,
2013-02-14 06:42:00,28.0,27.0,-100.00,ESE,105,5.0,8.0,96,-99.99,,,-99.99,,2013-02-14 11:42:00,
2013-02-14 06:52:00,28.0,27.0,-100.00,ESE,105,5.0,8.0,96,-99.99,,,-99.99,,2013-02-14 11:52:00,
2013-02-14 07:02:00,27.0,26.0,-100.00,NW,320,0.0,3.0,96,-99.99,,,-99.99,,2013-02-14 12:02:00,
2013-02-14 07:12:00,27.0,26.0,-100.00,NNE,25,3.0,4.0,96,-99.99,,,-99.99,,2013-02-14 12:12:00,
2013-02-14 07:22:00,27.0,26.0,-100.00,NNE,25,3.0,4.0,96,-99.99,,,-99.99,,2013-02-14 12:22:00,
2013-02-14 07:32:00,26.0,25.0,-100.00,NNE,30,2.0,4.0,96,-99.99,,,-99.99,,2013-02-14 12:32:00,
2013-02-14 07:42:00,26.0,25.0,-100.00,NNE,30,4.0,4.0,96,-99.99,,,-99.99,,2013-02-14 12:42:00,
2013-02-14 07:53:00,26.0,25.0,-100.00,NNE,30,4.0,4.0,96,-99.99,,,-99.99,,2013-02-14 12:53:00,
2013-02-14 08:02:00,26.0,25.0,-100.00,NNE,30,3.0,4.0,96,-99.99,,,-99.99,,2013-02-14 13:02:00,
2013-02-14 08:11:00,26.0,25.0,-100.00,North,10,1.0,2.0,96,-99.99,,,-99.99,,2013-02-14 13:11:00,
2013-02-14 08:21:00,26.0,25.0,-100.00,North,10,1.0,2.0,96,-99.99,,,-99.99,,2013-02-14 13:21:00,
2013-02-14 08:32:00,27.0,27.0,-100.00,North,10,0.0,4.0,96,-99.99,,,-99.99,,2013-02-14 13:32:00,
2013-02-14 08:42:00,28.0,27.0,-100.00,NE,55,1.0,6.0,96,-99.99,,,-99.99,,2013-02-14 13:42:00,
2013-02-14 08:51:00,28.0,27.0,-100.00,NE,55,1.0,6.0,96,-99.99,,,-99.99,,2013-02-14 13:51:00,
2013-02-14 09:01:00,29.0,28.0,-100.00,North,5,2.0,3.0,96,-99.99,,,-99.99,,2013-02-14 14:01:00,
2013-02-14 09:11:00,31.0,30.0,-100.00,NE,35,3.0,4.0,96,-99.99,,,-99.99,,2013-02-14 14:11:00,
2013-02-14 09:21:00,31.0,30.0,-100.00,NE,35,3.0,4.0,96,-99.99,,,-99.99,,2013-02-14 14:21:00,
2013-02-14 09:32:00,33.0,32.0,-100.00,NE,40,2.0,5.0,96,-99.99,,,-99.99,,2013-02-14 14:32:00,
2013-02-14 09:42:00,34.0,33.0,-100.00,NE,45,2.0,4.0,96,-99.99,,,-99.99,,2013-02-14 14:42:00,
2013-02-14 09:52:00,34.0,33.0,-100.00,NE,45,2.0,4.0,96,-99.99,,,-99.99,,2013-02-14 14:52:00,
2013-02-14 10:02:00,35.0,34.0,-100.00,NNE,30,3.0,6.0,96,-99.99,,,-99.99,,2013-02-14 15:02:00,
2013-02-14 10:11:00,36.0,35.0,-100.00,ENE,65,3.0,5.0,96,-99.99,,,-99.99,,2013-02-14 15:11:00,
2013-02-14 10:22:00,36.0,35.0,-100.00,ENE,65,3.0,5.0,96,-99.99,,,-99.99,,2013-02-14 15:22:00,
2013-02-14 10:32:00,37.0,36.0,-100.00,East,90,4.0,7.0,95,-99.99,,,-99.99,,2013-02-14 15:32:00,
2013-02-14 10:42:00,38.0,35.0,-100.00,East,95,7.0,10.0,90,-99.99,,,-99.99,,2013-02-14 15:42:00,
2013-02-14 10:52:00,38.0,35.0,-100.00,East,95,7.0,10.0,90,-99.99,,,-99.99,,2013-02-14 15:52:00,
2013-02-14 11:02:00,38.0,32.0,-100.00,East,80,4.0,11.0,80,-99.99,,,-99.99,,2013-02-14 16:02:00,
2013-02-14 11:11:00,39.0,30.0,-100.00,ESE,105,6.0,10.0,71,-99.99,,,-99.99,,2013-02-14 16:11:00,
2013-02-14 11:22:00,39.0,30.0,-100.00,ESE,105,6.0,10.0,71,-99.99,,,-99.99,,2013-02-14 16:22:00,
2013-02-14 11:32:00,40.0,29.0,-100.00,East,85,3.0,9.0,64,-99.99,,,-99.99,,2013-02-14 16:32:00,
2013-02-14 11:42:00,40.0,28.0,-100.00,East,90,6.0,8.0,61,-99.99,,,-99.99,,2013-02-14 16:42:00,
2013-02-14 11:51:00,42.0,28.0,-100.00,East,95,6.0,9.0,57,-99.99,,,-99.99,,2013-02-14 16:51:00,
2013-02-14 12:01:00,42.0,28.0,-100.00,East,95,6.0,9.0,57,-99.99,,,-99.99,,2013-02-14 17:01:00,
2013-02-14 12:11:00,41.0,26.0,-100.00,NNE,30,3.0,9.0,54,-99.99,,,-99.99,,2013-02-14 17:11:00,
2013-02-14 12:21:00,41.0,26.0,-100.00,NNE,30,3.0,9.0,54,-99.99,,,-99.99,,2013-02-14 17:21:00,
2013-02-14 12:32:00,43.0,27.0,-100.00,NE,35,4.0,6.0,52,-99.99,,,-99.99,,2013-02-14 17:32:00,
2013-02-14 12:42:00,44.0,27.0,-100.00,NNE,30,2.0,7.0,51,-99.99,,,-99.99,,2013-02-14 17:42:00,
2013-02-14 12:52:00,44.0,27.0,-100.00,NNE,30,2.0,7.0,51,-99.99,,,-99.99,,2013-02-14 17:52:00,
2013-02-14 13:02:00,43.0,25.0,-100.00,NE,50,7.0,11.0,50,-99.99,,,-99.99,,2013-02-14 18:02:00,
2013-02-14 13:11:00,42.0,25.0,-100.00,ENE,60,4.0,12.0,49,-99.99,,,-99.99,,2013-02-14 18:11:00,
2013-02-14 13:23:00,42.0,25.0,-100.00,ENE,60,4.0,12.0,49,-99.99,,,-99.99,,2013-02-14 18:23:00,
2013-02-14 13:32:00,45.0,25.0,-100.00,East,90,5.0,12.0,46,-99.99,,,-99.99,,2013-02-14 18:32:00,
2013-02-14 13:42:00,45.0,25.0,-100.00,East,90,5.0,11.0,45,-99.99,,,-99.99,,2013-02-14 18:42:00,
2013-02-14 13:52:00,45.0,25.0,-100.00,East,90,5.0,11.0,45,-99.99,,,-99.99,,2013-02-14 18:52:00,
2013-02-14 14:02:00,45.0,25.0,-100.00,NE,45,5.0,10.0,45,-99.99,,,-99.99,,2013-02-14 19:02:00,
2013-02-14 14:11:00,45.0,25.0,-100.00,NE,45,5.0,10.0,45,-99.99,,,-99.99,,2013-02-14 19:11:00,
2013-02-14 14:32:00,46.0,25.0,-100.00,ESE,115,6.0,12.0,43,-99.99,,,-99.99,,2013-02-14 19:32:00,
2013-02-14 14:42:00,47.0,26.0,-100.00,East,80,4.0,10.0,43,-99.99,,,-99.99,,2013-02-14 19:42:00,
2013-02-14 14:52:00,47.0,26.0,-100.00,East,80,4.0,10.0,43,-99.99,,,-99.99,,2013-02-14 19:52:00,
2013-02-14 15:01:00,46.0,25.0,-100.00,East,95,7.0,12.0,42,-99.99,,,-99.99,,2013-02-14 20:01:00,
2013-02-14 15:11:00,44.0,23.0,-100.00,NE,50,10.0,15.0,43,-99.99,,,-99.99,,2013-02-14 20:11:00,
2013-02-14 15:21:00,44.0,23.0,-100.00,NE,50,10.0,15.0,43,-99.99,,,-99.99,,2013-02-14 20:21:00,
2013-02-14 15:32:00,47.0,26.0,-100.00,East,95,5.0,11.0,43,-99.99,,,-99.99,,2013-02-14 20:32:00,
2013-02-14 15:42:00,45.0,23.0,-100.00,NE,50,6.0,12.0,41,-99.99,,,-99.99,,2013-02-14 20:42:00,
2013-02-14 15:52:00,45.0,23.0,-100.00,NE,50,6.0,12.0,41,-99.99,,,-99.99,,2013-02-14 20:52:00,
2013-02-14 16:02:00,45.0,24.0,-100.00,East,80,7.0,12.0,42,-99.99,,,-99.99,,2013-02-14 21:02:00,
2013-02-14 16:11:00,45.0,23.0,-100.00,NE,55,6.0,12.0,41,-99.99,,,-99.99,,2013-02-14 21:11:00,
2013-02-14 16:22:00,45.0,23.0,-100.00,NE,55,6.0,12.0,41,-99.99,,,-99.99,,2013-02-14 21:22:00,
2013-02-14 16:32:00,45.0,22.0,-100.00,NE,55,5.0,10.0,40,-99.99,,,-99.99,,2013-02-14 21:32:00,
2013-02-14 16:42:00,45.0,22.0,-100.00,NNE,30,4.0,10.0,40,-99.99,,,-99.99,,2013-02-14 21:42:00,
2013-02-14 16:51:00,45.0,22.0,-100.00,NNE,30,4.0,10.0,40,-99.99,,,-99.99,,2013-02-14 21:51:00,
2013-02-14 17:02:00,44.0,21.0,-100.00,North,10,6.0,11.0,40,-99.99,,,-99.99,,2013-02-14 22:02:00,
2013-02-14 17:11:00,44.0,22.0,-100.00,NE,40,4.0,8.0,41,-99.99,,,-99.99,,2013-02-14 22:11:00,
2013-02-14 17:21:00,44.0,22.0,-100.00,NE,40,4.0,8.0,41,-99.99,,,-99.99,,2013-02-14 22:21:00,
2013-02-14 17:32:00,45.0,22.0,-100.00,NNE,15,4.0,8.0,41,-99.99,,,-99.99,,2013-02-14 22:32:00,
2013-02-14 17:42:00,44.0,21.0,-100.00,NNE,20,7.0,10.0,40,-99.99,,,-99.99,,2013-02-14 22:42:00,
2013-02-14 17:51:00,44.0,21.0,-100.00,NNE,20,7.0,10.0,40,-99.99,,,-99.99,,2013-02-14 22:51:00,
2013-02-14 18:01:00,43.0,21.0,-100.00,NE,35,6.0,9.0,42,-99.99,,,-99.99,,2013-02-14 23:01:00,
2013-02-14 18:11:00,42.0,22.0,-100.00,NE,40,3.0,5.0,45,-99.99,,,-99.99,,2013-02-14 23:11:00,
2013-02-14 18:21:00,42.0,22.0,-100.00,NE,40,3.0,5.0,45,-99.99,,,-99.99,,2013-02-14 23:21:00,
2013-02-14 18:32:00,41.0,22.0,-100.00,North,0,1.0,3.0,47,-99.99,,,-99.99,,2013-02-14 23:32:00,
2013-02-14 18:42:00,38.0,23.0,-100.00,North,5,2.0,7.0,53,-99.99,,,-99.99,,2013-02-14 23:42:00,
2013-02-14 18:52:00,38.0,23.0,-100.00,North,5,2.0,7.0,53,-99.99,,,-99.99,,2013-02-14 23:52:00,
2013-02-14 19:02:00,36.0,24.0,-100.00,North,10,2.0,3.0,61,-99.99,,,-99.99,,2013-02-15 00:02:00,
2013-02-14 19:11:00,35.0,25.0,-100.00,NNE,25,2.0,2.0,65,-99.99,,,-99.99,,2013-02-15 00:11:00,
2013-02-14 19:22:00,35.0,25.0,-100.00,NNE,25,2.0,2.0,65,-99.99,,,-99.99,,2013-02-15 00:22:00,
2013-02-14 19:32:00,34.0,25.0,-100.00,NE,55,0.0,2.0,69,-99.99,,,-99.99,,2013-02-15 00:32:00,
2013-02-14 19:42:00,34.0,25.0,-100.00,NNE,20,0.0,2.0,71,-99.99,,,-99.99,,2013-02-15 00:42:00,
2013-02-14 19:52:00,34.0,25.0,-100.00,NNE,20,0.0,2.0,71,-99.99,,,-99.99,,2013-02-15 00:52:00,
2013-02-14 20:11:00,34.0,27.0,-100.00,SSW,210,1.0,3.0,77,-99.99,,,-99.99,,2013-02-15 01:11:00,
2013-02-14 20:21:00,34.0,27.0,-100.00,SSW,210,1.0,3.0,77,-99.99,,,-99.99,,2013-02-15 01:21:00,
2013-02-14 20:32:00,33.0,27.0,-100.00,SW,215,1.0,3.0,78,-99.99,,,-99.99,,2013-02-15 01:32:00,
2013-02-14 20:42:00,32.0,27.0,-100.00,SW,230,1.0,4.0,80,-99.99,,,-99.99,,2013-02-15 01:42:00,
2013-02-14 20:51:00,32.0,27.0,-100.00,SW,230,1.0,4.0,80,-99.99,,,-99.99,,2013-02-15 01:51:00,
2013-02-14 21:01:00,32.0,27.0,-100.00,SSW,200,1.0,3.0,82,-99.99,,,-99.99,,2013-02-15 02:01:00,
2013-02-14 21:11:00,31.0,27.0,-100.00,WSW,245,1.0,7.0,84,-99.99,,,-99.99,,2013-02-15 02:11:00,
2013-02-14 21:21:00,31.0,27.0,-100.00,WSW,245,1.0,7.0,84,-99.99,,,-99.99,,2013-02-15 02:21:00,
2013-02-14 21:32:00,31.0,27.0,-100.00,South,170,0.0,3.0,84,-99.99,,,-99.99,,2013-02-15 02:32:00,
2013-02-14 21:42:00,31.0,27.0,-100.00,SW,220,0.0,3.0,85,-99.99,,,-99.99,,2013-02-15 02:42:00,
2013-02-14 21:52:00,31.0,27.0,-100.00,SW,220,0.0,3.0,85,-99.99,,,-99.99,,2013-02-15 02:52:00,
2013-02-14 22:02:00,30.0,26.0,-100.00,East,90,0.0,5.0,86,-99.99,,,-99.99,,2013-02-15 03:02:00,
2013-02-14 22:11:00,29.0,26.0,-100.00,ESE,120,0.0,1.0,87,-99.99,,,-99.99,,2013-02-15 03:11:00,
2013-02-14 22:22:00,29.0,26.0,-100.00,ESE,120,0.0,1.0,87,-99.99,,,-99.99,,2013-02-15 03:22:00,
2013-02-14 22:32:00,29.0,27.0,-100.00,East,100,2.0,5.0,89,-99.99,,,-99.99,,2013-02-15 03:32:00,
2013-02-14 22:42:00,29.0,26.0,-100.00,SW,235,2.0,4.0,89,-99.99,,,-99.99,,2013-02-15 03:42:00,
2013-02-14 22:52:00,29.0,26.0,-100.00,SW,235,2.0,4.0,89,-99.99,,,-99.99,,2013-02-15 03:52:00,
2013-02-14 23:02:00,29.0,26.0,-100.00,SSW,210,3.0,5.0,90,-99.99,,,-99.99,,2013-02-15 04:02:00,
2013-02-14 23:11:00,28.0,26.0,-100.00,WSW,245,0.0,3.0,90,-99.99,,,-99.99,,2013-02-15 04:11:00,
2013-02-14 23:21:00,28.0,26.0,-100.00,WSW,245,0.0,3.0,90,-99.99,,,-99.99,,2013-02-15 04:21:00,
2013-02-14 23:32:00,28.0,26.0,-100.00,SW,215,3.0,5.0,91,-99.99,,,-99.99,,2013-02-15 04:32:00,
2013-02-14 23:42:00,28.0,26.0,-100.00,SSW,205,3.0,4.0,91,-99.99,,,-99.99,,2013-02-15 04:42:00,
2013-02-14 23:52:00,28.0,26.0,-100.00,SSW,205,3.0,4.0,91,-99.99,,,-99.99,,2013-02-15 04:52:00,